(64468) = 1990 QM15 = 1995 OH1 = 2001 VG41

Discovered at Socorro on 2001-11-09 by LINEAR.

Orbit

Orbit type: Main Belt

Note: WebGL enabled browser required.

epoch2024-03-31.0
epoch JD2460400.5
perihelion date2022-03-01.89343
perihelion JD2459640.39344
argument of perihelion (°)302.59867
ascending node (°)81.60462
inclination (°)2.37324
eccentricity0.2564853
perihelion distance (AU)2.2262945
Tisserand w.r.t. Jupiter3.2
ΔV w.r.t. Earth (km/sec)9.5
semimajor axis (AU)2.9942842
mean anomaly (°)144.59026
mean daily motion (°/day)0.19022370
aphelion distance (AU)3.762
period (years)5.18
P-vector [x]0.91138170
P-vector [y]0.39011864
P-vector [z]0.13111389
Q-vector [x]-0.40951831
Q-vector [y]0.82789625
Q-vector [z]0.38325259
absolute magnitude15.04
phase slope0.15
uncertainty0
referenceE2024-GI3
observations used1149
oppositions22
arc length (days)12283
first opposition used1990
last opposition used2024
residual rms (arc-secs)0.65
perturbers coarse indicatorM-v
perturbers precise indicator003Ek
first observation date used1990-08-26.0
last observation date used2024-04-12.0
computer nameMPCLINUX
JD of orbit computation2456819.630902
perihelion JD uncertainty (days)4.8293E-05
argument of perihelion uncertainty (°)1.0156E-04
ascending node uncertainty (°)1.0118E-04
inclination uncertainty (°)4.0687E-06
eccentricity uncertainty 5.6587E-08
perihelion distance uncertainty (AU)1.7312E-07
Minimum Orbit Intersection Distances (in AU)
for orbit epoch: 2460400.5, reference: E2024-GI3
Mercury1.88921
Venus1.50156
Earth1.23132
Mars0.79219
Jupiter1.68619
Saturn5.86735
Uranus14.783
Neptune26.891

Observations

1160 total observations over interval: 1990 08 26.16042 – 2024 03 16.557942
These data are available for download (format description).

Date (UT) J2000 RA J2000 Dec Magn Location Ref
1990 08 26.16042 22 49 22.76 -11 44 46.3 19.0   809 – European Southern Observatory, La Silla MPC 18961
1990 08 26.17361 22 49 22.18 -11 44 49.8   809 – European Southern Observatory, La Silla MPC 18961
1990 08 26.18681 22 49 21.55 -11 44 54.1   809 – European Southern Observatory, La Silla MPC 18961
1993 03 17.10660 12 29 40.04 +00 14 23.3 19.2   809 – European Southern Observatory, La Silla MPS 44758
1993 03 23.12188 12 25 18.02 +00 42 49.9 19.6   809 – European Southern Observatory, La Silla MPS 44758
1995 07 19.71063 21 00 44.97 -19 44 53.0   327 – Peking Observatory, Xinglong Station MPC 25474
1995 07 19.73251 21 00 43.97 -19 44 59.5 18.8   327 – Peking Observatory, Xinglong Station MPC 25474
1995 07 19.75378 21 00 42.95 -19 45 03.9 19.3   327 – Peking Observatory, Xinglong Station MPC 25474
1995 07 19.77610 21 00 41.95 -19 45 09.5 19.0   327 – Peking Observatory, Xinglong Station MPC 25474
1995 07 19.79841 21 00 40.95 -19 45 16.0 19.7   327 – Peking Observatory, Xinglong Station MPC 25474
1995 07 21.66958 20 59 18.07 -19 53 02.9 19.3   327 – Peking Observatory, Xinglong Station MPC 25474
1995 07 21.68486 20 59 17.27 -19 53 04.8 19.7   327 – Peking Observatory, Xinglong Station MPC 25474
1995 07 21.70013 20 59 16.51 -19 53 08.8 19.7   327 – Peking Observatory, Xinglong Station MPC 25474
1995 07 21.71564 20 59 15.80 -19 53 13.9 18.7   327 – Peking Observatory, Xinglong Station MPC 25474
1996 12 08.58807 07 09 29.83 +23 20 00.0 17.6 V 369 – Chichibu MPS 44758
1996 12 08.60041 07 09 29.27 +23 20 04.0   369 – Chichibu MPS 44758
1999 05 21.22423 14 40 06.93 -13 37 43.6 21.3 V 691 – Steward Observatory, Kitt Peak-Spacewatch MPS 79976
1999 05 21.24566 14 40 05.97 -13 37 40.1 20.9 V 691 – Steward Observatory, Kitt Peak-Spacewatch MPS 79976
1999 05 21.26717 14 40 05.00 -13 37 36.3 20.9 V 691 – Steward Observatory, Kitt Peak-Spacewatch MPS 79976
2001 08 25.42259 04 38 27.79 +20 36 57.2 19.5   644 – Palomar Mountain/NEAT MPS 44758
2001 08 25.44325 04 38 29.66 +20 37 01.1 19.6   644 – Palomar Mountain/NEAT MPS 44758
2001 08 25.46471 04 38 31.55 +20 37 05.3 19.5   644 – Palomar Mountain/NEAT MPS 44758
2001 09 26.41051 05 17 17.17 +21 44 08.0 19.2   704 – Lincoln Laboratory ETS, New Mexico MPS 55120
2001 09 26.42507 05 17 17.95 +21 44 09.5 20.5   704 – Lincoln Laboratory ETS, New Mexico MPS 55120
2001 09 26.43958 05 17 18.73 +21 44 11.2 20.4   704 – Lincoln Laboratory ETS, New Mexico MPS 55120
2001 09 26.45411 05 17 19.46 +21 44 12.1 19.3   704 – Lincoln Laboratory ETS, New Mexico MPS 55120
2001 09 26.46863 05 17 20.22 +21 44 12.9 20.0   704 – Lincoln Laboratory ETS, New Mexico MPS 55120
2001 11 09.38212 05 26 57.36 +22 20 17.1 19.5   704 – Lincoln Laboratory ETS, New Mexico MPS 41299
2001 11 09.39649 05 26 56.87 +22 20 18.3 19.2   704 – Lincoln Laboratory ETS, New Mexico MPS 41299
2001 11 09.41085 05 26 56.45 +22 20 18.3 19.1   704 – Lincoln Laboratory ETS, New Mexico MPS 41299
2001 11 09.42523 05 26 55.99 +22 20 18.8 18.6   704 – Lincoln Laboratory ETS, New Mexico MPS 41299
2001 11 12.36105 05 25 22.01 +22 21 47.6 18.1   704 – Lincoln Laboratory ETS, New Mexico MPS 41299
2001 11 12.37554 05 25 21.48 +22 21 48.0 18.3   704 – Lincoln Laboratory ETS, New Mexico MPS 41299
2001 11 12.38999 05 25 20.94 +22 21 48.6 18.4   704 – Lincoln Laboratory ETS, New Mexico MPS 41299
2001 11 12.40447 05 25 20.40 +22 21 49.3 18.4   704 – Lincoln Laboratory ETS, New Mexico MPS 41299
2001 11 12.41892 05 25 19.87 +22 21 50.0 18.7   704 – Lincoln Laboratory ETS, New Mexico MPS 41299
2001 11 20.36545 05 19 52.94 +22 25 00.1 18.5   704 – Lincoln Laboratory ETS, New Mexico MPS 44758
2001 11 20.38011 05 19 52.21 +22 25 00.2 18.7   704 – Lincoln Laboratory ETS, New Mexico MPS 44758
2001 11 20.39478 05 19 51.49 +22 25 00.3 18.6   704 – Lincoln Laboratory ETS, New Mexico MPS 44758
2001 11 20.40944 05 19 50.75 +22 25 00.9 18.7   704 – Lincoln Laboratory ETS, New Mexico MPS 44758
2001 11 20.42421 05 19 50.05 +22 25 01.1 18.6   704 – Lincoln Laboratory ETS, New Mexico MPS 44758
2001 11 21.37141 05 19 05.09 +22 25 18.7 18.1   704 – Lincoln Laboratory ETS, New Mexico MPS 55120
2001 11 21.38609 05 19 04.36 +22 25 18.9 18.2   704 – Lincoln Laboratory ETS, New Mexico MPS 55120
2001 11 21.40076 05 19 03.63 +22 25 19.1 18.3   704 – Lincoln Laboratory ETS, New Mexico MPS 55120
2001 11 21.41545 05 19 02.89 +22 25 19.5 18.4   704 – Lincoln Laboratory ETS, New Mexico MPS 55120
2001 11 21.43014 05 19 02.12 +22 25 19.8 18.3   704 – Lincoln Laboratory ETS, New Mexico MPS 55120
2001 12 10.28953 05 01 38.61 +22 26 31.3 18.1   704 – Lincoln Laboratory ETS, New Mexico MPS 44758
2001 12 10.30456 05 01 37.68 +22 26 31.0 18.6   704 – Lincoln Laboratory ETS, New Mexico MPS 44758
2001 12 10.31960 05 01 36.80 +22 26 30.9 18.5   704 – Lincoln Laboratory ETS, New Mexico MPS 44758
2001 12 10.33465 05 01 35.88 +22 26 30.7 18.8   704 – Lincoln Laboratory ETS, New Mexico MPS 44758
2001 12 10.34971 05 01 34.86 +22 26 29.7 19.2   704 – Lincoln Laboratory ETS, New Mexico MPS 44758
2001 12 12.23529 04 59 47.19 +22 26 13.4 18.0   644 – Palomar Mountain/NEAT MPS 44758
2001 12 12.32076 04 59 42.15 +22 26 12.8 17.7   644 – Palomar Mountain/NEAT MPS 44758
2001 12 12.38744 04 59 38.21 +22 26 11.8 17.4   644 – Palomar Mountain/NEAT MPS 44758
2001 12 14.22935 04 57 54.51 +22 25 52.0 18.0   704 – Lincoln Laboratory ETS, New Mexico MPS 44758
2001 12 14.24445 04 57 53.64 +22 25 51.7 18.0   704 – Lincoln Laboratory ETS, New Mexico MPS 44758
2001 12 14.25957 04 57 52.76 +22 25 51.9 18.1   704 – Lincoln Laboratory ETS, New Mexico MPS 44758
2001 12 14.27516 04 57 51.85 +22 25 51.9 18.2   704 – Lincoln Laboratory ETS, New Mexico MPS 44758
2001 12 14.29030 04 57 50.98 +22 25 51.8 17.9   704 – Lincoln Laboratory ETS, New Mexico MPS 44758
2001 12 17.22800 04 55 10.03 +22 25 16.5 19.0   704 – Lincoln Laboratory ETS, New Mexico MPS 44758
2001 12 17.24354 04 55 09.10 +22 25 16.2 18.9   704 – Lincoln Laboratory ETS, New Mexico MPS 44758
2001 12 17.25882 04 55 08.24 +22 25 15.9 18.9   704 – Lincoln Laboratory ETS, New Mexico MPS 44758
2001 12 17.27392 04 55 07.42 +22 25 15.6 18.7   704 – Lincoln Laboratory ETS, New Mexico MPS 44758
2001 12 17.28902 04 55 06.59 +22 25 15.1 18.7   704 – Lincoln Laboratory ETS, New Mexico MPS 44758
2001 12 19.21470 04 53 25.11 +22 24 53.3 18.1 R 703 – Catalina Sky Survey MPS 44758
2001 12 19.22648 04 53 24.46 +22 24 52.9 17.6 R 703 – Catalina Sky Survey MPS 44758
2001 12 19.23046 04 53 24.21 +22 24 52.4 18.0   704 – Lincoln Laboratory ETS, New Mexico MPS 44758
2001 12 19.23825 04 53 23.82 +22 24 52.4 17.9 R 703 – Catalina Sky Survey MPS 44758
2001 12 19.24561 04 53 23.38 +22 24 52.2 18.0   704 – Lincoln Laboratory ETS, New Mexico MPS 44758
2001 12 19.25019 04 53 23.20 +22 24 52.3 18.1 R 703 – Catalina Sky Survey MPS 44758
2001 12 19.26074 04 53 22.56 +22 24 52.1 17.9   704 – Lincoln Laboratory ETS, New Mexico MPS 44758
2001 12 19.27588 04 53 21.75 +22 24 52.0 18.0   704 – Lincoln Laboratory ETS, New Mexico MPS 44758
2001 12 19.29101 04 53 20.92 +22 24 51.8 18.1   704 – Lincoln Laboratory ETS, New Mexico MPS 44758
2001 12 20.22493 04 52 33.23 +22 24 41.7 18.5   704 – Lincoln Laboratory ETS, New Mexico MPS 46681
2001 12 20.23499 04 52 32.59 +22 24 40.5 18.0   704 – Lincoln Laboratory ETS, New Mexico MPS 46681
2001 12 20.24005 04 52 32.41 +22 24 41.7 18.9   704 – Lincoln Laboratory ETS, New Mexico MPS 46681
2001 12 20.25011 04 52 31.77 +22 24 40.3 18.4   704 – Lincoln Laboratory ETS, New Mexico MPS 46681
2001 12 20.25515 04 52 31.55 +22 24 40.6 18.9   704 – Lincoln Laboratory ETS, New Mexico MPS 46681
2001 12 20.26522 04 52 31.11 +22 24 40.5 18.7   704 – Lincoln Laboratory ETS, New Mexico MPS 46681
2001 12 20.29543 04 52 29.34 +22 24 39.3 18.4   704 – Lincoln Laboratory ETS, New Mexico MPS 46681
2001 12 21.22101 04 51 42.98 +22 24 27.6 18.8   704 – Lincoln Laboratory ETS, New Mexico MPS 46681
2001 12 21.23612 04 51 42.24 +22 24 28.5 18.9   704 – Lincoln Laboratory ETS, New Mexico MPS 46681
2001 12 21.25120 04 51 41.45 +22 24 28.7 19.0   704 – Lincoln Laboratory ETS, New Mexico MPS 46681
2001 12 21.26633 04 51 40.66 +22 24 28.1 19.0   704 – Lincoln Laboratory ETS, New Mexico MPS 46681
